[[{"header":{"parameterUnit":"m.s-1","parameterCategory":1,"la1":30.2992,"la2":30.254,"lo1":-89.0895,"lo2":-89.0443,"dy":0.0025,"dx":0.0025,"nx":19,"ny":19,"refTime":"2026-03-21T09:00:00:Z","depth":0,"parameterNumber":2,"parameterNumberName":"U-component_of_WINDS"},"data":[0,0,0,0.9373,0.9374,0.9456,0.9457,0.9542,0.9542,0,0,0,0,0,0,0,0,0,0,0,0.9334,0.9334,0.9373,0.9375,0.9456,0.9457,0.9542,0.9542,0,0,0,0,0,0,0,0,0,0,0,0.9334,0.9334,0.9334,0.9375,0.9456,0.9457,0.9542,0.9487,0,0,0,0,0,0,0,0,0,0,0.9411,0.9361,0.9334,0.9334,0.9375,0.9456,0.9457,0.9485,0.9491,0.9496,0,0.9494,0,0.9519,0.9547,0.9547,0,0,0,0.9386,0.9356,0.9391,0.9334,0.9376,0.9456,0.9423,0.9489,0.9495,0.9503,0.9495,0.9499,0.9521,0.9547,0.9547,0.9536,0.9536,0,0,0.9381,0.9341,0.9387,0.9394,0.9378,0.942,0.9425,0.9493,0.9482,0.9496,0.9502,0.9522,0.9548,0.9548,0.9537,0.9536,0,0,0,0.9361,0.9337,0.9372,0.939,0.9407,0.9422,0.9428,0.948,0.9494,0.9503,0.9523,0.9548,0.9549,0.9538,0.9537,0.947,0,0,0,0.9358,0.9326,0.9369,0.9346,0.9405,0.9443,0.9413,0.9489,0.9498,0.9523,0.9548,0.9549,0.9538,0.9537,0.9473,0.9444,0,0,0,0.9334,0.9323,0.933,0.9343,0.9377,0.9443,0.9462,0.9492,0.951,0.9547,0.9549,0.9539,0.9537,0.9476,0.9449,0.943,0,0,0,0.9296,0.9268,0.9328,0.9305,0.9376,0.9401,0.9462,0.9483,0.9506,0.9548,0.9538,0.9537,0.9477,0.9452,0.9433,0.9407,0.9392,0,0,0.9238,0.9259,0.925,0.9306,0.931,0.9392,0.9387,0.9447,0.9487,0.9518,0.9519,0.9472,0.9449,0.9431,0.9325,0.9313,0,0,0,0.9218,0.921,0.922,0.924,0.9286,0.9323,0.9388,0.9411,0.944,0.9494,0.9462,0.945,0.944,0.943,0.942,0.9415,0.953,0.953,0.953,0.9077,0.9131,0.912,0.9185,0.9204,0.9274,0.9296,0.9339,0.9387,0.9379,0.9387,0.9317,0.9302,0.9295,0.929,0.9379,0.9379,0.9378,0.9378,0.8997,0.8995,0.9063,0.9075,0.9135,0.9147,0.9214,0.9249,0.927,0.9313,0.9308,0.935,0.928,0.9279,0.9374,0.9374,0.9375,0.9375,0.9376,0.891,0.8919,0.8948,0.8987,0.9011,0.908,0.9098,0.9152,0.9202,0.9197,0.9214,0.9215,0.9223,0.9202,0.9201,0.9201,0.9201,0.9201,0.9201,0.8807,0.8843,0.885,0.89,0.8922,0.8959,0.9032,0.9057,0.9098,0.9136,0.9137,0.9186,0.9263,0.9281,0.9197,0.9198,0.9198,0.9199,0.9199,0.8704,0.8737,0.8748,0.8771,0.8836,0.8858,0.8929,0.8975,0.9004,0.9012,0.9065,0.9113,0.9138,0.9147,0.9162,0.9052,0.9052,0.9052,0.9052,0.8629,0.8649,0.8675,0.8708,0.8748,0.8814,0.883,0.8889,0.8955,0.8977,0.9002,0.9027,0.9033,0.9055,0.9066,0.9081,0.8952,0.8952,0.8952,0.8569,0.8596,0.8596,0.8661,0.8717,0.8765,0.8783,0.8821,0.8904,0.8949,0.8996,0.9,0.9042,0.9052,0.9095,0.911,0.9139,0,0]},{"header":{"parameterUnit":"m.s-1","parameterCategory":1,"la1":30.2992,"la2":30.254,"lo1":-89.0895,"lo2":-89.0443,"dy":0.0025,"dx":0.0025,"nx":19,"ny":19,"refTime":"2026-03-21T09:00:00:Z","depth":0,"parameterNumber":3,"parameterNumberName":"V-component_of_WINDS"},"data":[0,0,0,3.974,3.9741,3.9815,3.9815,3.9892,3.9893,0,0,0,0,0,0,0,0,0,0,0,3.9711,3.9711,3.974,3.9741,3.9815,3.9815,3.9892,3.9893,0,0,0,0,0,0,0,0,0,0,0,3.9711,3.9711,3.9712,3.9742,3.9814,3.9815,3.9892,3.9842,0,0,0,0,0,0,0,0,0,0,3.9773,3.974,3.9711,3.9712,3.9742,3.9814,3.9815,3.984,3.9845,3.9853,0,3.9861,0,3.9879,3.9897,3.9898,0,0,0,3.9745,3.9736,3.9763,3.9712,3.9743,3.9814,3.9783,3.9843,3.9849,3.986,3.9862,3.9866,3.988,3.9898,3.9898,3.9939,3.9939,0,0,3.9741,3.9719,3.9758,3.9766,3.9757,3.978,3.9785,3.9847,3.9846,3.9863,3.9868,3.9881,3.9898,3.9899,3.9939,3.9939,0,0,0,3.9727,3.9716,3.9742,3.9763,3.9777,3.9782,3.9788,3.9844,3.9854,3.9869,3.9882,3.9899,3.9899,3.9939,3.9939,3.9919,0,0,0,3.9725,3.9708,3.974,3.9727,3.9776,3.9812,3.9783,3.985,3.9857,3.9882,3.9899,3.99,3.9939,3.9939,3.992,3.9913,0,0,0,3.9708,3.9706,3.9715,3.9726,3.9757,3.9811,3.9826,3.9852,3.9865,3.9898,3.99,3.9939,3.9939,3.992,3.9914,3.9918,0,0,0,3.9684,3.9693,3.9714,3.973,3.9756,3.98,3.9825,3.9858,3.9883,3.9899,3.9939,3.9939,3.9921,3.9914,3.9919,3.9918,3.9916,0,0,3.9683,3.9692,3.9704,3.9724,3.9759,3.979,3.9821,3.9863,3.9884,3.9919,3.992,3.992,3.9914,3.9918,3.9912,3.991,0,0,0,3.9696,3.9704,3.9718,3.9743,3.9778,3.9807,3.9848,3.9863,3.9895,3.9899,3.9923,3.992,3.9924,3.9924,3.9923,3.9927,3.9939,3.9939,3.9939,3.9662,3.9693,3.9713,3.9753,3.9777,3.982,3.9842,3.987,3.989,3.9896,3.9906,3.9899,3.9899,3.9898,3.9902,3.9908,3.9908,3.9908,3.9908,3.9664,3.968,3.9712,3.9743,3.9774,3.98,3.9842,3.9856,3.9883,3.9893,3.9898,3.9906,3.9895,3.9901,3.9907,3.9907,3.9907,3.9907,3.9907,3.9645,3.9659,3.9681,3.9722,3.975,3.9789,3.9815,3.9841,3.9866,3.987,3.9884,3.9885,3.9889,3.9875,3.9875,3.9875,3.9875,3.9875,3.9875,3.9617,3.9643,3.9663,3.9704,3.9725,3.9755,3.98,3.982,3.9849,3.9866,3.9866,3.9886,3.9889,3.989,3.9875,3.9875,3.9875,3.9875,3.9875,3.9607,3.9615,3.9646,3.9668,3.9718,3.9745,3.9779,3.9819,3.9839,3.9851,3.9871,3.9869,3.9879,3.988,3.9881,3.9865,3.9865,3.9865,3.9865,3.9591,3.9601,3.9641,3.9673,3.9708,3.9744,3.9777,3.9812,3.9848,3.9862,3.9869,3.9872,3.9872,3.9882,3.9883,3.9884,3.9869,3.9869,3.9869,3.9588,3.9602,3.9626,3.9667,3.9709,3.9743,3.9775,3.9809,3.9852,3.987,3.9874,3.9874,3.9879,3.9879,3.9896,3.9897,3.9899,0,0]}]]